Weather History for Phoenix Deer Valley, AZ

Change the Weather History Date:

Saturday, July 27, 2013

  Actual Average Record
Temperature  
Mean Temperature 90 °F -  
Max Temperature 100 °F 101 °F 111 °F (1998)
Min Temperature 80 °F 81 °F 78 °F (1996)
Cooling Degree Days 25    
Growing Degree Days 40 (Base 50)    
Moisture  
Dew Point 65 °F    
Average Humidity 45    
Maximum Humidity 74    
Minimum Humidity 26    
Precipitation  
Precipitation 0.02 in - - ()
Sea Level Pressure  
Sea Level Pressure 29.82 in    
Wind  
Wind Speed 7 mph (ESE)    
Max Wind Speed 12 mph    
Max Gust Speed 21 mph    
Visibility 10 miles    
Events Rain    
Averages and records for this station are not official NWS values.
T = Trace of Precipitation, MM = Missing Value Source: NWS Daily Summary

Daily Weather History Graph

Daily Weather History Graph

Search for Another Location

Airport:

Trip Planner

Search our weather history database for the weather conditions in past years. The results will help you decide how hot, cold, wet, or windy it might be!

Date:

Astronomy

Jul. 27, 2013 Rise Set
Actual Time 5:37 AM MST 7:32 PM MST
Civil Twilight 5:09 AM MST 7:59 PM MST
Nautical Twilight 4:36 AM MST 8:32 PM MST
Astronomical Twilight 4:00 AM MST 9:08 PM MST
Moon 10:42 PM MST (7/27) 11:01 AM MST (7/27)
Length of Visible Light 14h 50m
Length of Day
13h 55m
Waning Gibbous, 70% of the Moon is Illuminated
Jul 27
Waning Gibbous
Jul 29
Last Quarter
Aug 6
New
Aug 14
First Quarter
Aug 20
Full

Hourly Weather History & Observations

Time (MST) Temp. Heat Index Dew Point Humidity Pressure Visibility Wind Dir Wind Speed Gust Speed Precip Events Conditions
12:06 AM 84.2 °F 85.6 °F 64.4 °F 51% 30.01 in 10.0 mi North 11.5 mph 20.7 mph N/A   Mostly Cloudy
12:53 AM 80.1 °F 82.7 °F 68.0 °F 67% 29.91 in 10.0 mi NE 6.9 mph - 0.02 in Rain Light Rain
1:53 AM 81.0 °F 84.9 °F 71.1 °F 72% 29.90 in 10.0 mi North 3.5 mph - 0.00 in   Clear
2:53 AM 81.0 °F 85.2 °F 72.0 °F 74% 29.88 in 10.0 mi NNE 4.6 mph - N/A   Clear
3:53 AM 81.0 °F 84.4 °F 70.0 °F 69% 29.88 in 10.0 mi NNE 9.2 mph - N/A   Clear
4:53 AM 81.0 °F 84.1 °F 69.1 °F 67% 29.90 in 10.0 mi NE 6.9 mph - N/A   Clear
5:53 AM 81.0 °F 84.4 °F 70.0 °F 69% 29.90 in 10.0 mi NE 4.6 mph - N/A   Clear
6:53 AM 82.9 °F 86.5 °F 69.1 °F 63% 29.91 in 10.0 mi NE 5.8 mph - N/A   Scattered Clouds
7:53 AM 86.0 °F 90.1 °F 69.1 °F 57% 29.91 in 10.0 mi NNE 3.5 mph - N/A   Clear
8:53 AM 90.0 °F 92.8 °F 66.9 °F 46% 29.90 in 10.0 mi Calm Calm - N/A   Clear
9:53 AM 90.0 °F 92.4 °F 66.0 °F 45% 29.90 in 10.0 mi SSE 4.6 mph - N/A   Scattered Clouds
10:53 AM 93.0 °F 95.0 °F 64.9 °F 39% 29.88 in 10.0 mi Calm Calm - N/A   Mostly Cloudy
11:53 AM 95.0 °F 97.4 °F 64.9 °F 37% 29.86 in 10.0 mi SSE 6.9 mph - N/A   Scattered Clouds
12:53 PM 97.0 °F 99.3 °F 64.0 °F 34% 29.83 in 10.0 mi SSE 9.2 mph - N/A   Clear
1:53 PM 99.0 °F 100.5 °F 63.0 °F 30% 29.80 in 10.0 mi Variable 6.9 mph - N/A   Partly Cloudy
2:53 PM 99.0 °F 100.5 °F 62.1 °F 30% 29.75 in 10.0 mi SSW 6.9 mph - N/A   Partly Cloudy
3:53 PM 98.1 °F 99.1 °F 62.1 °F 30% 29.73 in 10.0 mi South 9.2 mph - N/A   Clear
4:53 PM 99.0 °F 100.5 °F 63.0 °F 30% 29.71 in 10.0 mi SSW 6.9 mph - N/A   Clear
5:53 PM 100.0 °F 101.2 °F 61.0 °F 28% 29.69 in 10.0 mi SSW 11.5 mph 16.1 mph N/A   Clear
6:53 PM 99.0 °F 99.5 °F 60.1 °F 28% 29.69 in 10.0 mi SW 6.9 mph - N/A   Clear
7:53 PM 98.1 °F 97.2 °F 57.9 °F 26% 29.69 in 10.0 mi SW 5.8 mph - N/A   Clear
8:53 PM 97.0 °F 96.5 °F 59.0 °F 28% 29.70 in 10.0 mi South 4.6 mph - N/A   Mostly Cloudy
9:53 PM 96.1 °F 95.2 °F 57.9 °F 28% 29.71 in 10.0 mi SSW 4.6 mph - N/A   Mostly Cloudy
10:53 PM 93.0 °F 93.0 °F 61.0 °F 34% 29.72 in 10.0 mi NNW 8.1 mph - N/A   Scattered Clouds
11:53 PM 89.1 °F 91.0 °F 64.9 °F 45% 29.73 in 10.0 mi North 4.6 mph - N/A   Clear